This demonstration page uses our WeatherBlox Daily Observations layout. Learn more.

Left ArrowRight Arrow

Hourly Observations for August 12, 2016

Temp ( °F °C ) Dew Point ( °F °C ) Humidity (%) Winds ( mph kmh ) Pressure ( in mb ) Visibility ( mi km ) Precip ( " mm )
12:14 am 00:14 Partly Cloudy 75 24 73 23 94 94 Calm 29.94 1014 10 16.0934 N/A
12:35 am 00:35 Mostly Cloudy 75 24 73 23 94 94 SSE 3 6 29.97 1015 10 16.0934 N/A
12:54 am 00:54 Partly Cloudy 75 24 73 23 94 94 S 3 6 29.97 1015 10 16.0934 N/A
1:14 am 01:14 Mostly Cloudy 75 24 73 23 94 94 S 3 6 29.97 1015 10 16.0934 N/A
1:35 am 01:35 Cloudy 75 24 73 23 94 94 SSW 3 6 29.97 1015 10 16.0934 N/A
1:54 am 01:54 Cloudy 77 25 73 23 89 89 SSW 5 7 29.94 1014 10 16.0934 N/A
2:14 am 02:14 Mostly Cloudy 77 25 73 23 89 89 SSW 5 7 29.94 1014 10 16.0934 N/A
2:34 am 02:34 Mostly Cloudy 77 25 73 23 89 89 S 5 7 29.94 1014 10 16.0934 N/A
2:54 am 02:54 Cloudy 77 25 73 23 89 89 S 3 6 29.94 1014 10 16.0934 N/A
3:15 am 03:15 Cloudy 75 24 73 23 94 94 S 3 6 29.94 1014 10 16.0934 N/A
3:34 am 03:34 Mostly Cloudy 75 24 73 23 94 94 S 3 6 29.94 1014 10 16.0934 N/A
3:54 am 03:54 Mostly Cloudy 75 24 73 23 94 94 SSW 3 6 29.94 1014 10 16.0934 N/A
4:15 am 04:15 Cloudy 75 24 73 23 94 94 S 3 6 29.91 1013 10 16.0934 N/A
4:34 am 04:34 Partly Cloudy 73 23 73 23 100 100 SSW 5 7 29.91 1013 10 16.0934 N/A
4:54 am 04:54 Clear 73 23 72 22 94 94 Calm 29.91 1013 10 16.0934 N/A
5:15 am 05:15 Clear 73 23 72 22 94 94 Calm 29.91 1013 10 16.0934 N/A
5:34 am 05:34 Clear 73 23 72 22 94 94 S 3 6 29.91 1013 10 16.0934 N/A
5:54 am 05:54 Clear 73 23 72 22 94 94 Calm 29.91 1013 10 16.0934 N/A
6:14 am 06:14 Clear 73 23 72 22 94 94 Calm 29.91 1013 10 16.0934 N/A
6:34 am 06:34 Clear 73 23 72 22 94 94 Calm 29.91 1013 10 16.0934 N/A
6:54 am 06:54 Sunny 73 23 72 22 94 94 Calm 29.91 1013 10 16.0934 N/A
7:14 am 07:14 Sunny 73 23 72 22 94 94 S 6 9 29.94 1014 10 16.0934 N/A
7:34 am 07:34 Sunny 73 23 72 22 94 94 S 5 7 29.94 1014 10 16.0934 N/A
7:54 am 07:54 Sunny 73 23 72 22 94 94 SSW 6 9 29.94 1014 10 16.0934 N/A
8:14 am 08:14 Partly Cloudy 75 24 73 23 94 94 S 5 7 29.94 1014 10 16.0934 N/A
8:34 am 08:34 Mostly Cloudy 77 25 73 23 89 89 SSW 7 11 29.94 1014 10 16.0934 N/A
8:54 am 08:54 Cloudy 75 24 73 23 94 94 SSW 8 13 29.94 1014 10 16.0934 N/A
9:14 am 09:14 Cloudy 77 25 73 23 89 89 SSW 7 11 29.94 1014 10 16.0934 N/A
9:34 am 09:34 Cloudy 75 24 73 23 94 94 S 3 6 29.94 1014 1 1.60934 N/A
9:55 am 09:55 Mostly Cloudy 77 25 75 24 94 94 Calm 29.94 1014 10 16.0934 N/A
10:14 am 10:14 Cloudy 79 26 75 24 89 89 SSW 7 11 29.94 1014 10 16.0934 N/A
10:34 am 10:34 Cloudy 79 26 75 24 89 89 SSW 5 7 29.94 1014 10 16.0934 N/A
10:55 am 10:55 Cloudy 81 27 75 24 84 84 SW 7 11 29.94 1014 10 16.0934 N/A
11:14 am 11:14 Cloudy 81 27 75 24 84 84 WSW 8 13 29.91 1013 10 16.0934 N/A
11:34 am 11:34 Mostly Cloudy 82 28 75 24 79 79 SW 9 15 29.91 1013 10 16.0934 N/A
11:55 am 11:55 Mostly Cloudy 82 28 73 23 74 74 SW 7 11 29.91 1013 10 16.0934 N/A
12:14 pm 12:14 Cloudy 84 29 75 24 74 74 WSW 6 9 29.91 1013 10 16.0934 N/A
12:34 pm 12:34 Cloudy 82 28 75 24 79 79 W 7 11 29.91 1013 10 16.0934 N/A
12:55 pm 12:55 Mostly Cloudy 84 29 73 23 70 70 SW 7 11 29.91 1013 10 16.0934 N/A
1:14 pm 13:14 Mostly Cloudy 84 29 75 24 74 74 S 8 13 29.91 1013 10 16.0934 N/A
1:34 pm 13:34 Cloudy 84 29 75 24 74 74 SSW 7 11 29.88 1012 10 16.0934 N/A
1:55 pm 13:55 Mostly Cloudy 88 31 77 25 70 70 SSW 8 13 29.85 1011 10 16.0934 N/A
2:14 pm 14:14 Mostly Cloudy 86 30 75 24 70 70 SW 8 13 29.85 1011 10 16.0934 N/A
2:34 pm 14:34 Mostly Cloudy 86 30 75 24 70 70 SSW 9 15 29.85 1011 10 16.0934 N/A
2:54 pm 14:54 Cloudy 86 30 75 24 70 70 S 10 17 29.85 1011 10 16.0934 N/A
3:14 pm 15:14 Mostly Cloudy 88 31 75 24 66 66 S 13 20 29.85 1011 10 16.0934 N/A
3:34 pm 15:34 Mostly Cloudy 88 31 75 24 66 66 S 12 19 29.85 1011 10 16.0934 N/A
3:54 pm 15:54 Mostly Cloudy 88 31 75 24 66 66 SW 13 20 29.83 1010 10 16.0934 N/A
4:14 pm 16:14 Partly Cloudy 86 30 73 23 66 66 SSW 13 20 29.83 1010 10 16.0934 N/A
4:35 pm 16:35 Partly Cloudy 86 30 75 24 70 70 S 8 13 29.83 1010 10 16.0934 N/A
4:54 pm 16:54 Partly Cloudy 86 30 75 24 70 70 S 14 22 29.83 1010 10 16.0934 N/A
5:14 pm 17:14 Sunny 86 30 73 23 66 66 SSW 10 17 29.83 1010 10 16.0934 N/A
5:35 pm 17:35 Partly Cloudy 86 30 75 24 70 70 SSW 8 13 29.83 1010 10 16.0934 N/A
5:54 pm 17:54 Partly Cloudy 86 30 73 23 66 66 S 13 20 29.83 1010 10 16.0934 N/A
6:14 pm 18:14 Sunny 84 29 73 23 70 70 S 13 20 29.85 1011 10 16.0934 N/A
6:35 pm 18:35 Sunny 86 30 73 23 66 66 S 9 15 29.8 1009 10 16.0934 N/A
6:54 pm 18:54 Sunny 84 29 73 23 70 70 S 9 15 29.83 1010 10 16.0934 N/A
7:14 pm 19:14 Sunny 84 29 75 24 74 74 S 10 17 29.77 1008 10 16.0934 N/A
7:35 pm 19:35 Sunny 84 29 73 23 70 70 SSW 8 13 29.77 1008 10 16.0934 N/A
7:54 pm 19:54 Sunny 82 28 73 23 74 74 SSW 7 11 29.8 1009 10 16.0934 N/A
8:14 pm 20:14 Sunny 81 27 73 23 79 79 S 7 11 29.83 1010 10 16.0934 N/A
8:35 pm 20:35 Sunny 81 27 73 23 79 79 S 7 11 29.83 1010 10 16.0934 N/A
8:54 pm 20:54 Clear 81 27 73 23 79 79 S 7 11 29.85 1011 10 16.0934 N/A
9:14 pm 21:14 Clear 79 26 73 23 84 84 S 5 7 29.85 1011 10 16.0934 N/A
9:35 pm 21:35 Clear 79 26 73 23 84 84 SSW 5 7 29.85 1011 10 16.0934 N/A
9:54 pm 21:54 Clear 77 25 73 23 89 89 S 3 6 29.85 1011 10 16.0934 N/A
10:14 pm 22:14 Partly Cloudy 77 25 73 23 89 89 S 6 9 29.88 1012 10 16.0934 N/A
10:34 pm 22:34 Cloudy 79 26 73 23 84 84 S 6 9 29.85 1011 10 16.0934 N/A
10:54 pm 22:54 Cloudy 79 26 73 23 84 84 S 7 11 29.85 1011 10 16.0934 N/A
11:14 pm 23:14 Mostly Cloudy 77 25 73 23 89 89 S 7 11 29.85 1011 10 16.0934 N/A
11:34 pm 23:34 Mostly Cloudy 79 26 73 23 84 84 S 8 13 29.85 1011 10 16.0934 N/A
11:54 pm 23:54 Cloudy 79 26 73 23 84 84 SSW 12 19 29.85 1011 10 16.0934 N/A

Powered by AerisWeather